GW2412 Weather Reports


Display with metric or nautical units.
time (UTC)temp
F
wind
direction
speed
MPH
gust
MPH
rain 1hr
in
rain 24hr
in
rain mn
in
humidity
%
barometer
mb
20260906225020 60 323 8.0 14.0 0.00 0.28 0.18 1 1017.0
20260906224549 60 346 9.0 13.0 0.00 0.28 0.18 1 1017.2
20260906224019 60 344 10.0 13.0 0.00 0.28 0.18 1 1017.1
20260906223517 60 333 10.0 14.0 0.00 0.28 0.18 1 1017.2
20260906223042 60 325 9.0 12.0 0.00 0.28 0.18 1 1017.0
20260906222515 60 299 7.0 12.0 0.00 0.28 0.18 1 1017.2
20260906222016 60 315 9.0 12.0 0.00 0.28 0.18 1 1017.2
20260906221549 60 298 8.0 12.0 0.00 0.28 0.18 1 1017.2
20260906221017 60 309 8.0 12.0 0.00 0.28 0.18 1 1017.0
20260906220519 60 300 8.0 13.0 0.00 0.28 0.18 1 1017.2
20260906220044 60 292 7.0 11.0 0.00 0.28 0.18 1 1017.4
20260906215516 60 296 8.0 13.0 0.00 0.28 0.18 1 1017.4
20260906215016 61 291 7.0 13.0 0.00 0.28 0.18 1 1017.2
20260906214544 61 305 8.0 12.0 0.00 0.28 0.18 1 1017.3
20260906214019 61 275 6.0 10.0 0.00 0.28 0.18 1 1017.2
20260906213516 61 283 4.0 9.0 0.00 0.28 0.18 1 1017.4
20260906213050 61 244 5.0 10.0 0.00 0.28 0.18 1 1017.3
20260906212516 61 271 5.0 11.0 0.00 0.28 0.18 1 1017.3
20260906212017 61 271 8.0 11.0 0.00 0.28 0.18 1 1017.1
20260906211549 61 246 8.0 11.0 0.00 0.28 0.18 1 1017.2
20260906211016 61 299 8.0 11.0 0.00 0.28 0.18 1 1017.2
20260906210517 61 269 6.0 10.0 0.00 0.28 0.18 1 1017.1
20260906210053 61 333 3.0 8.0 0.00 0.28 0.18 1 1017.2
20260906205518 61 333 1.0 9.0 0.00 0.28 0.18 1 1017.0
20260906205016 61 301 4.0 8.0 0.00 0.28 0.18 1 1017.1
20260906204549 60 286 3.0 11.0 0.00 0.28 0.18 1 1017.1
20260906204017 60 312 8.0 11.0 0.00 0.28 0.18 1 1016.9
20260906203518 59 337 7.0 12.0 0.00 0.28 0.18 1 1017.1
20260906203040 59 342 7.0 12.0 0.00 0.28 0.18 1 1017.1
20260906202516 59 329 9.0 12.0 0.00 0.28 0.18 1 1017.2
20260906202019 59 310 6.0 11.0 0.00 0.28 0.18 1 1017.3
20260906201549 59 338 8.0 15.0 0.00 0.28 0.18 1 1017.4
20260906201022 59 311 8.0 15.0 0.00 0.28 0.18 1 1017.3
20260906200519 59 320 10.0 15.0 0.00 0.28 0.18 1 1017.1
20260906200040 59 321 10.0 15.0 0.00 0.28 0.18 1 1017.2
20260906195516 60 315 11.0 15.0 0.00 0.28 0.18 1 1017.1
20260906195021 61 322 8.0 12.0 0.00 0.28 0.18 1 1017.2
20260906194553 61 297 8.0 10.0 0.00 0.28 0.18 1 1017.3
20260906194018 62 290 4.0 12.0 0.00 0.28 0.18 1 1017.3
20260906193519 61 318 8.0 12.0 0.00 0.28 0.18 1 1017.1
20260906193049 62 320 8.0 11.0 0.00 0.28 0.18 1 1017.1
20260906192516 62 317 5.0 10.0 0.00 0.28 0.18 1 1017.0
20260906192019 64 173 1.0 7.0 0.00 0.28 0.18 1 1017.4
20260906191548 64 117 3.0 8.0 0.00 0.28 0.18 1 1017.2
20260906191020 64 98 1.0 8.0 0.00 0.28 0.18 1 1017.3
20260906190518 64 51 3.0 9.0 0.00 0.28 0.18 1 1017.3
20260906190049 64 106 1.0 9.0 0.00 0.28 0.18 1 1017.3
20260906185515 64 71 5.0 10.0 0.00 0.28 0.18 1 1017.2
20260906185017 64 79 7.0 13.0 0.00 0.28 0.18 1 1017.0
20260906184540 64 59 8.0 13.0 0.00 0.28 0.18 1 1016.8
20260906184019 63 77 7.0 12.0 0.00 0.28 0.18 1 1016.8
20260906183519 63 46 7.0 12.0 0.00 0.28 0.18 1 1017.0
20260906183059 62 48 4.0 9.0 0.00 0.28 0.18 1 1017.1
20260906182518 61 15 6.0 9.0 0.00 0.28 0.18 1 1017.1
20260906182017 59 350 4.0 11.0 0.00 0.28 0.18 1 1017.4
20260906181545 58 338 5.0 11.0 0.00 0.28 0.18 1 1017.4
20260906181017 58 327 6.0 10.0 0.01 0.28 0.18 1 1017.7
20260906180516 58 306 5.0 10.0 0.01 0.28 0.18 1 1017.8
20260906180110 58 339 5.0 10.0 0.01 0.28 0.18 1 1018.0
20260906175522 58 13 5.0 9.0 0.01 0.28 0.18 1 1018.1
20260906175019 57 348 4.0 8.0 0.01 0.28 0.18 1 1017.9
20260906174555 57 49 2.0 10.0 0.01 0.28 0.18 1 1018.3
20260906174019 56 20 6.0 14.0 0.01 0.28 0.18 1 1018.1
20260906173517 55 19 9.0 26.0 0.01 0.28 0.18 1 1018.1
20260906173054 54 44 15.0 27.0 0.01 0.28 0.18 1 1017.8
20260906172517 53 28 17.0 27.0 0.01 0.28 0.18 1 1017.8
20260906172018 52 351 17.0 24.0 0.01 0.28 0.18 1 1018.7
20260906171609 53 328 17.0 23.0 0.01 0.28 0.18 1 1018.8
20260906171018 53 336 17.0 24.0 0.01 0.26 0.17 1 1019.1
20260906170518 53 275 16.0 24.0 0.01 0.26 0.17 1 1019.3
20260906170059 54 259 12.0 18.0 0.01 0.26 0.17 1 1019.1
20260906165520 54 324 10.0 14.0 0.03 0.26 0.17 1 1019.3
20260906165017 55 319 7.0 11.0 0.03 0.26 0.17 1 1019.1
20260906164555 55 302 5.0 8.0 0.03 0.26 0.17 1 1018.9
20260906164019 55 343 3.0 5.0 0.03 0.26 0.17 1 1019.1
20260906163518 55 343 1.0 5.0 0.03 0.26 0.17 1 1019.2
20260906163055 55 343 1.0 5.0 0.03 0.26 0.17 1 1019.2
20260906162517 55 343 2.0 9.0 0.03 0.26 0.17 1 1018.9
20260906162018 54 343 5.0 12.0 0.03 0.26 0.17 1 1018.7
20260906161611 54 317 8.0 13.0 0.03 0.26 0.17 1 1018.7
20260906161016 54 346 9.0 15.0 0.02 0.26 0.16 1 1018.8
20260906160520 54 325 11.0 15.0 0.02 0.26 0.16 1 1019.0
20260906160050 53 5 10.0 20.0 0.02 0.26 0.16 1 1019.1
20260906155519 53 321 15.0 20.0 0.00 0.24 0.14 1 1019.1
20260906155019 53 355 14.0 20.0 0.00 0.24 0.14 1 1018.9
20260906154549 53 339 15.0 22.0 0.01 0.24 0.14 1 1018.9
20260906154019 53 346 14.0 24.0 0.06 0.24 0.14 1 1019.2
20260906153517 53 355 18.0 24.0 0.06 0.24 0.14 1 1019.1
20260906153108 53 322 14.0 21.0 0.09 0.24 0.14 1 1019.1
20260906152518 53 317 12.0 19.0 0.12 0.24 0.14 1 1019.6
20260906152016 53 318 13.0 18.0 0.12 0.24 0.14 1 1019.5
20260906151550 52 338 13.0 17.0 0.12 0.24 0.14 1 1019.5
20260906151017 52 333 13.0 17.0 0.12 0.24 0.14 1 1019.7
20260906150519 52 5 12.0 17.0 0.12 0.24 0.14 1 1019.8
20260906150045 52 360 12.0 19.0 0.12 0.24 0.14 1 1019.9
20260906145515 52 333 11.0 19.0 0.12 0.25 0.14 1 1020.0
20260906145018 51 336 14.0 21.0 0.12 0.25 0.14 1 1019.9
20260906144549 51 293 13.0 26.0 0.09 0.22 0.11 1 1020.5
20260906144016 51 279 18.0 29.0 0.06 0.19 0.08 1 1020.5
20260906143519 51 264 18.0 29.0 0.04 0.18 0.07 1 1019.6
20260906143049 52 271 21.0 29.0 0.02 0.14 0.04 1 1020.0
20260906142519 53 253 16.0 23.0 0.00 0.13 0.02 1 1019.9
20260906142023 55 240 11.0 20.0 0.00 0.13 0.02 1 1020.3
20260906141600 58 238 11.0 20.0 0.00 0.13 0.02 1 1020.0
20260906141017 58 53 11.0 16.0 0.00 0.13 0.02 1 1019.2
20260906140518 58 74 11.0 18.0 0.00 0.13 0.02 1 1018.8
20260906140053 59 64 12.0 18.0 0.00 0.13 0.02 1 1019.2
20260906135519 59 63 11.0 19.0 0.00 0.19 0.02 1 1018.9
20260906135016 59 59 13.0 19.0 0.00 0.19 0.02 1 1018.9
20260906134550 58 64 13.0 19.0 0.00 0.19 0.02 1 1018.9
20260906134016 58 34 11.0 18.0 0.00 0.19 0.02 1 1018.9
20260906133517 58 65 13.0 19.0 0.00 0.19 0.02 1 1019.1
20260906133057 58 65 13.0 18.0 0.00 0.19 0.02 1 1018.9
20260906132518 58 40 12.0 17.0 0.00 0.19 0.02 1 1018.9
20260906132017 58 57 12.0 17.0 0.00 0.19 0.02 1 1019.2
20260906131600 58 38 7.0 11.0 0.00 0.19 0.02 1 1019.2
20260906131020 58 32 1.0 4.0 0.00 0.19 0.02 1 1019.1
20260906130519 58 5 1.0 8.0 0.00 0.19 0.02 1 1019.3
20260906130052 59 216 0.0 10.0 0.00 0.19 0.02 1 1019.3
20260906125519 59 13 4.0 15.0 0.00 0.19 0.02 1 1019.3
20260906125017 59 11 9.0 16.0 0.00 0.19 0.02 1 1019.3
20260906124550 58 35 7.0 12.0 0.00 0.19 0.02 1 1019.3
20260906124021 58 27 8.0 13.0 0.00 0.19 0.02 1 1019.2
20260906123518 57 32 6.0 11.0 0.00 0.19 0.02 1 1019.2
20260906123052 57 13 6.0 11.0 0.00 0.19 0.02 1 1019.4
20260906122519 57 305 2.0 8.0 0.00 0.19 0.02 1 1019.5
20260906122019 57 18 3.0 12.0 0.00 0.19 0.02 1 1019.7
20260906121542 58 294 8.0 19.0 0.00 0.19 0.02 1 1019.8
20260906121024 58 11 11.0 24.0 0.00 0.19 0.02 1 1019.7
20260906120518 58 54 18.0 24.0 0.00 0.19 0.02 1 1019.2
20260906120056 58 44 13.0 25.0 0.00 0.19 0.02 1 1019.3
20260906115516 58 29 20.0 25.0 0.00 0.19 0.02 1 1019.0
20260906115017 57 82 12.0 17.0 0.00 0.19 0.02 1 1019.3
20260906114553 57 55 11.0 15.0 0.00 0.19 0.02 1 1019.5
20260906114020 56 54 10.0 15.0 0.00 0.19 0.02 1 1019.4
20260906113519 57 71 3.0 19.0 0.00 0.19 0.02 1 1019.5
20260906113050 57 41 11.0 22.0 0.00 0.19 0.02 1 1019.4
20260906112519 57 36 14.0 22.0 0.00 0.19 0.02 1 1018.8
20260906112017 57 35 12.0 18.0 0.00 0.19 0.02 1 1019.1
20260906111548 58 38 8.0 20.0 0.00 0.19 0.02 1 1018.9
20260906111018 58 55 9.0 17.0 0.00 0.19 0.02 1 1019.1
20260906110517 59 269 9.0 17.0 0.00 0.19 0.02 1 1018.7
20260906110049 60 44 3.0 13.0 0.00 0.19 0.02 1 1019.3
20260906105520 59 337 6.0 14.0 0.00 0.19 0.02 1 1019.2
20260906105022 60 346 7.0 16.0 0.00 0.19 0.02 1 1019.3
20260906104549 60 5 7.0 16.0 0.00 0.19 0.02 1 1019.3
20260906104019 58 97 6.0 22.0 0.00 0.19 0.02 1 1019.3
20260906103520 58 294 3.0 24.0 0.00 0.19 0.02 1 1019.5
20260906103052 58 263 12.0 24.0 0.00 0.19 0.02 1 1019.1
20260906102519 57 261 9.0 24.0 0.00 0.19 0.02 1 1019.3
20260906102016 57 232 8.0 17.0 0.00 0.19 0.02 1 1018.9
20260906101549 57 311 9.0 16.0 0.00 0.19 0.02 1 1019.0
20260906101020 57 305 10.0 16.0 0.00 0.19 0.02 1 1019.5
20260906100523 57 297 9.0 12.0 0.00 0.19 0.02 1 1019.6
20260906100045 56 360 7.0 12.0 0.00 0.19 0.02 1 1019.5
20260906095517 56 340 6.0 10.0 0.00 0.19 0.02 1 1019.4
20260906095019 56 5 4.0 9.0 0.00 0.19 0.02 1 1019.4
20260906094557 56 27 3.0 6.0 0.00 0.19 0.02 1 1019.5
20260906094020 56 352 2.0 9.0 0.00 0.19 0.02 1 1019.5
20260906093518 56 352 2.0 21.0 0.00 0.19 0.02 1 1019.6
20260906093053 55 30 15.0 26.0 0.00 0.19 0.02 1 1019.3
20260906092518 55 26 20.0 26.0 0.00 0.19 0.02 1 1019.5
20260906092021 55 355 17.0 25.0 0.00 0.19 0.02 1 1019.3
20260906091551 54 24 19.0 25.0 0.00 0.19 0.02 1 1019.7
20260906091021 52 317 16.0 26.0 0.00 0.19 0.02 1 1020.1
20260906090520 52 300 11.0 19.0 0.00 0.19 0.02 1 1020.8
20260906090053 51 244 12.0 23.0 0.00 0.19 0.02 1 1021.4
20260906085519 51 265 17.0 23.0 0.00 0.19 0.02 1 1021.4
20260906085019 51 271 17.0 24.0 0.00 0.19 0.02 1 1021.0
20260906084559 52 297 15.0 25.0 0.00 0.19 0.02 1 1020.0
20260906084025 53 315 11.0 25.0 0.00 0.19 0.02 1 1020.2
20260906083518 54 317 17.0 25.0 0.00 0.19 0.02 1 1020.0
20260906083049 54 338 15.0 26.0 0.00 0.19 0.02 1 1019.6
20260906082519 53 352 15.0 27.0 0.00 0.19 0.02 1 1019.7
20260906082019 52 349 19.0 29.0 0.00 0.19 0.02 1 1019.2
20260906081548 52 329 20.0 30.0 0.00 0.19 0.02 1 1019.7
20260906081021 53 336 22.0 30.0 0.00 0.19 0.02 1 1019.7
20260906080521 53 311 16.0 24.0 0.00 0.19 0.02 1 1019.6
20260906075517 54 328 13.0 18.0 0.00 0.19 0.02 1 1020.3
20260906075017 55 338 9.0 15.0 0.00 0.19 0.02 1 1020.3
20260906074556 55 338 12.0 18.0 0.00 0.19 0.02 1 1020.0
20260906074018 54 9 12.0 20.0 0.00 0.19 0.02 1 1019.9
20260906073517 54 5 13.0 20.0 0.00 0.19 0.02 1 1020.2
20260906073054 54 5 13.0 20.0 0.00 0.19 0.02 1 1020.3
20260906072518 54 5 14.0 22.0 0.00 0.19 0.02 1 1020.3
20260906072020 54 342 16.0 23.0 0.00 0.19 0.02 1 1020.5
20260906071552 54 326 16.0 24.0 0.00 0.19 0.02 1 1020.5
20260906071024 54 347 16.0 24.0 0.00 0.19 0.02 1 1020.8
20260906070521 54 338 12.0 21.0 0.01 0.19 0.02 1 1021.0
20260906070059 54 5 13.0 21.0 0.02 0.19 0.02 1 1021.0
20260906065520 54 350 16.0 23.0 0.02 0.19 0.02 1 1020.9
20260906065018 53 350 15.0 23.0 0.02 0.19 0.02 1 1021.0
20260906064552 53 355 16.0 26.0 0.02 0.19 0.02 1 1021.0
20260906064021 53 360 19.0 27.0 0.02 0.19 0.02 1 1020.9
20260906063520 53 336 19.0 27.0 0.02 0.19 0.02 1 1021.4
20260906063102 53 334 18.0 25.0 0.02 0.19 0.02 1 1021.4
20260906062523 54 319 15.0 21.0 0.02 0.19 0.02 1 1022.0
20260906062019 54 305 14.0 19.0 0.02 0.19 0.02 1 1022.0
20260906061550 54 328 14.0 20.0 0.02 0.19 0.02 1 1021.8
20260906061020 54 325 14.0 20.0 0.02 0.19 0.02 1 1021.7
20260906060518 54 349 11.0 17.0 0.01 0.17 0.00 1 1021.8
20260906060133 54 303 10.0 15.0 0.01 0.17 0.00 1 1021.9
20260906055517 54 309 6.0 12.0 0.02 0.17 0.17 1 1021.5
20260906055020 54 340 8.0 13.0 0.02 0.17 0.17 1 1021.2
20260906054606 54 323 10.0 14.0 0.02 0.17 0.17 1 1021.2
20260906054021 54 317 10.0 14.0 0.02 0.17 0.17 1 1021.4
20260906053520 54 330 10.0 16.0 0.02 0.17 0.17 1 1021.4
20260906053056 54 360 10.0 16.0 0.02 0.17 0.17 1 1021.4
20260906052519 54 348 10.0 21.0 0.02 0.17 0.17 1 1021.7
20260906052019 54 360 14.0 22.0 0.02 0.17 0.17 1 1021.5
20260906051601 53 309 14.0 24.0 0.02 0.17 0.17 1 1021.4
20260906051021 53 321 15.0 24.0 0.02 0.17 0.17 1 1021.1
20260906050525 54 334 19.0 25.0 0.01 0.16 0.16 1 1020.6
20260906045521 55 314 13.0 16.0 0.00 0.14 0.14 1 1022.6
20260906045017 55 329 5.0 10.0 0.01 0.14 0.14 1 1022.3
20260906044559 55 283 5.0 9.0 0.02 0.14 0.14 1 1021.4
20260906044023 55 325 4.0 8.0 0.04 0.14 0.14 1 1020.8
20260906043526 55 331 4.0 10.0 0.06 0.14 0.14 1 1020.6
20260906043037 55 335 7.0 15.0 0.08 0.14 0.14 1 1020.5
20260906042518 55 5 10.0 16.0 0.08 0.14 0.14 1 1020.4
20260906042016 55 313 11.0 15.0 0.08 0.14 0.14 1 1020.5
20260906041538 55 329 9.0 16.0 0.08 0.14 0.14 1 1020.8
20260906041018 55 334 9.0 16.0 0.08 0.14 0.14 1 1020.7
20260906040517 54 344 11.0 16.0 0.08 0.14 0.14 1 1020.8
20260906040039 54 332 10.0 21.0 0.08 0.14 0.14 1 1021.0
20260906035517 54 345 13.0 26.0 0.08 0.14 0.14 1 1021.0
20260906035017 54 347 19.0 26.0 0.07 0.14 0.14 1 1019.8
20260906034553 55 347 15.0 21.0 0.04 0.12 0.12 1 1021.3
20260906034019 55 318 13.0 17.0 0.03 0.09 0.09 1 1022.3
20260906033518 56 324 11.0 15.0 0.01 0.08 0.08 1 1022.1
20260906033046 57 303 7.0 17.0 0.00 0.07 0.07 1 1022.3
20260906032517 58 312 11.0 19.0 0.00 0.07 0.07 1 1021.7
20260906032016 59 306 11.0 24.0 0.00 0.07 0.07 1 1020.9
20260906031535 59 339 16.0 24.0 0.00 0.07 0.07 1 1020.4
20260906031017 59 331 14.0 22.0 0.00 0.07 0.07 1 1020.4
20260906030519 59 313 16.0 21.0 0.00 0.07 0.07 1 1020.2
20260906030041 59 304 14.0 20.0 0.00 0.07 0.07 1 1020.0
20260906025520 59 285 14.0 23.0 0.00 0.07 0.07 1 1019.7
20260906025018 59 311 11.0 19.0 0.00 0.07 0.07 1 1019.6
20260906024540 58 309 10.0 22.0 0.00 0.07 0.07 1 1019.6
20260906024019 58 315 11.0 21.0 0.00 0.07 0.07 1 1019.2
20260906023518 58 330 14.0 21.0 0.00 0.07 0.07 1 1019.3
20260906023039 58 342 14.0 21.0 0.00 0.07 0.07 1 1019.3
20260906022517 57 352 15.0 20.0 0.00 0.07 0.07 1 1019.3
20260906022017 58 319 15.0 20.0 0.00 0.07 0.07 1 1019.5
20260906021544 58 355 14.0 21.0 0.00 0.07 0.07 1 1019.5
20260906021017 58 345 14.0 21.0 0.00 0.07 0.07 1 1019.2
20260906020515 58 341 15.0 20.0 0.00 0.07 0.07 1 1019.0
20260906020039 59 340 14.0 19.0 0.00 0.07 0.07 1 1019.3
20260906015516 59 344 13.0 19.0 0.00 0.07 0.07 1 1019.2
20260906015018 59 323 13.0 19.0 0.00 0.07 0.07 1 1019.4
20260906014548 60 320 12.0 16.0 0.00 0.07 0.07 1 1019.6
20260906014018 60 325 10.0 14.0 0.00 0.07 0.07 1 1019.6
20260906013518 60 325 9.0 16.0 0.00 0.07 0.07 1 1019.5
20260906013038 61 296 10.0 15.0 0.00 0.07 0.07 1 1019.3
20260906012516 61 318 11.0 15.0 0.00 0.07 0.07 1 1019.5
20260906012015 61 348 8.0 14.0 0.00 0.07 0.07 1 1019.6
20260906011542 61 320 11.0 16.0 0.00 0.07 0.07 1 1019.4
20260906011016 61 346 10.0 16.0 0.00 0.07 0.07 1 1019.5
20260906010517 61 330 9.0 18.0 0.00 0.07 0.07 1 1019.5
20260906010043 61 323 13.0 20.0 0.00 0.07 0.07 1 1019.4
20260906005518 61 340 13.0 21.0 0.00 0.07 0.07 1 1019.5
20260906005016 61 350 13.0 23.0 0.00 0.07 0.07 1 1019.6
20260906004549 61 344 16.0 22.0 0.00 0.07 0.07 1 1019.6
20260906004017 62 336 12.0 21.0 0.00 0.07 0.07 1 1019.5
20260906003516 62 346 15.0 23.0 0.00 0.07 0.07 1 1019.4
20260906003042 62 329 15.0 23.0 0.00 0.07 0.07 1 1019.7
20260906002515 62 314 12.0 20.0 0.00 0.07 0.07 1 1019.8
20260906002017 62 333 16.0 20.0 0.00 0.07 0.07 1 1019.4
20260906001558 63 352 14.0 21.0 0.00 0.07 0.07 1 1019.6
20260906001016 63 341 16.0 21.0 0.00 0.07 0.07 1 1019.7
20260906000516 63 355 13.0 21.0 0.00 0.07 0.07 1 1019.9
20260906000046 63 355 14.0 20.0 0.00 0.07 0.07 1 1020.0
20260905235517 63 325 13.0 19.0 0.00 0.07 0.07 1 1020.1
20260905235019 63 333 14.0 19.0 0.00 0.07 0.07 1 1020.1
20260905234544 64 340 13.0 19.0 0.00 0.07 0.07 1 1020.2
20260905234016 64 336 12.0 19.0 0.00 0.07 0.07 1 1020.2
20260905233518 64 355 12.0 19.0 0.00 0.07 0.07 1 1020.0
20260905233040 64 333 15.0 19.0 0.00 0.07 0.07 1 1019.9
20260905232520 65 360 13.0 18.0 0.00 0.07 0.07 1 1020.0
20260905232016 65 5 12.0 18.0 0.00 0.07 0.07 1 1019.7
20260905231540 65 328 13.0 19.0 0.00 0.07 0.07 1 1019.9
20260905231019 65 351 10.0 19.0 0.00 0.07 0.07 1 1019.8
20260905230515 65 325 12.0 19.0 0.00 0.07 0.07 1 1019.9
20260905230047 65 317 14.0 18.0 0.00 0.07 0.07 1 1019.8
20260905225520 65 346 11.0 19.0 0.00 0.07 0.07 1 1019.6